Home > Weather > Vancouver > Past weeks

Flag for USA Past Weather in Vancouver, Washington, USA — Yesterday and Last 2 Weeks

Now
62 °F

Overcast.


Feels Like: 62 °F
Forecast: 60 / 80 °F
Wind: 9 mph from Northwest

Location: Vancouver - Pearson Airpark

Current Time: Jul 26, 2016 at 9:15:46 AM

Latest Report: Jul 26, 2016 at 8:53 AM


Visibility: 10 mi

Pressure: 30.18 "Hg

Humidity: 75%

Dew Point: 54 °F

Location of VancouverLocation

Past Weather in Vancouver — Graph

°F

Vancouver Temperature Yesterday

Maximum temperature yesterday: 86 °F (at 4:53 PM)
Minimum temperature yesterday: 61 °F (at 5:53 AM)
Average temperature yesterday: 72 °F

High & Low Weather Summary for the Past Weeks

 TemperatureHumidityPressure
High86 °F (Jul 21, 4:53 PM)93% (Jul 22, 3:53 AM)30.29 "Hg (Jul 22, 3:53 AM)
Low52 °F (Jul 15, 4:53 AM)32% (Jul 20, 4:53 PM)29.92 "Hg (Jul 17, 8:53 PM)
Average67 °F65%30.09 "Hg
* Reported Jul 11 7:53 AM — Jul 26 7:53 AM, Vancouver, Weather by CustomWeather, © 2016

Note: Actual official high and low records may vary slightly from our data, if they occured in-between our weather recording intervals... More about our weather records

Advertising

Vancouver Weather History for the Previous 24 Hours

Scroll right to see more
 ConditionsComfort  
Time TempWeatherWind HumidityBarometerVisibility
7:53 AM
Tue, Jul 26
62 °FOvercast.10 mph73%30.17 "Hg10 mi
6:53 AM61 °FPartly sunny.3 mph75%30.16 "Hg10 mi
5:53 AM60 °FClear.3 mph78%30.14 "Hg10 mi
4:53 AM61 °FClear.No wind81%30.13 "Hg10 mi
3:53 AM61 °FClear.No wind83%30.12 "Hg10 mi
2:53 AM62 °FClear.5 mph80%30.11 "Hg10 mi
1:53 AM63 °FClear.7 mph78%30.11 "Hg10 mi
12:53 AM63 °FClear.7 mph75%30.10 "Hg10 mi
11:53 PM
Mon, Jul 25
65 °FClear.9 mph70%30.09 "Hg10 mi
10:53 PM67 °FClear.7 mph68%30.07 "Hg10 mi
9:53 PM71 °FClear.7 mph61%30.06 "Hg10 mi
8:53 PM76 °FSunny.6 mph56%30.03 "Hg10 mi
7:53 PM82 °FSunny.8 mph48%30.01 "Hg10 mi
6:53 PM85 °FSunny.7 mph43%29.99 "Hg10 mi
5:53 PM86 °FSunny.12 mph42%29.99 "Hg10 mi
4:53 PM86 °FSunny.14 mph42%29.99 "Hg10 mi
3:53 PM85 °FSunny.9 mph43%30.01 "Hg10 mi
2:53 PM82 °FSunny.5 mph46%30.02 "Hg10 mi
1:53 PM79 °FSunny.8 mph50%30.03 "Hg10 mi
12:53 PM77 °FSunny.6 mph52%30.04 "Hg10 mi
11:53 AM73 °FSunny.6 mph62%30.06 "Hg10 mi
10:53 AM70 °FPartly sunny.6 mph66%30.08 "Hg10 mi
9:53 AM65 °FOvercast.5 mph76%30.08 "Hg10 mi
Weather by CustomWeather, © 2016

See weather overviewHow to use our weather pages